Terug naar catalogus

STARLINK-32431

ActiefCommunicatieVLEO
NORAD 61256·PAYLOAD·🇺🇸 United States

Gelanceerd Sep 25, 2024 vanaf Vandenberg Space Force Base

Loading…

Volgende Passages (komende 24 uur)

TLE

VersSource: CelesTrak SupGP

Epoch: Sep 14, 2026, 21:16 UTC

1 61256C 24175P   26257.88659722  .00045045  00000+0  13320-2 0  2573
2 61256  53.1583  32.0209 0001153  78.7578   2.4246 15.34342475    12

Volg STARLINK-32431 in realtime met AllMySat

Download on the App Store